Weather History for KHIF - March, 2013

Change the Weather History Date:

Friday, March 15, 2013

  Actual Average Record
Temperature  
Mean Temperature 54 °F -  
Max Temperature 63 °F 49 °F 68 °F (2015)
Min Temperature 46 °F 32 °F 17 °F (2002)
Degree Days  
Heating Degree Days 11    
Growing Degree Days 4 (Base 50)    
Moisture  
Dew Point 23 °F    
Average Humidity 32    
Maximum Humidity 47    
Minimum Humidity 15    
Precipitation  
Precipitation 0.00 in - - ()
Sea Level Pressure  
Sea Level Pressure 29.99 in    
Wind  
Wind Speed 8 mph (SE)    
Max Wind Speed 13 mph    
Max Gust Speed -    
Visibility 10 miles    
Events      
Averages and records for this station are not official NWS values.
T = Trace of Precipitation, MM = Missing Value Source: NWS Daily Summary

Daily Weather History Graph

Daily Weather History Graph

Search for Another Location

Airport or City:

Trip Planner

Search our weather history database for the weather conditions in past years. The results will help you decide how hot, cold, wet, or windy it might be!

Date:

Astronomy

Mar. 15, 2013 Rise Set
Actual Time 7:39 AM MDT 7:34 PM MDT
Civil Twilight 7:11 AM MDT 8:02 PM MDT
Nautical Twilight 6:39 AM MDT 8:34 PM MDT
Astronomical Twilight 6:07 AM MDT 9:06 PM MDT
Moon 9:29 AM MDT (3/15) 11:55 PM MDT (3/15)
Length of Visible Light 12h 50m
Length of Day
11h 55m
Waxing Crescent, 16% of the Moon is Illuminated
Mar 15
Waxing Crescent
Mar 19
First Quarter
Mar 27
Full
Apr 2
Last Quarter
Apr 10
New

Hourly Weather History & Observations

Time (MDT) Temp. Dew Point Humidity Pressure Visibility Wind Dir Wind Speed Gust Speed Precip Events Conditions
12:58 AM 53.2 °F 23.0 °F 31% 30.04 in 10.0 mi ESE 11.5 mph - N/A   Clear
1:58 AM 53.2 °F 23.2 °F 31% 30.01 in 10.0 mi ESE 11.5 mph - N/A   Clear
2:58 AM 52.0 °F 23.7 °F 33% 30.01 in 10.0 mi East 8.1 mph - N/A   Clear
3:58 AM 48.4 °F 28.2 °F 46% 30.00 in 10.0 mi ESE 11.5 mph - N/A   Clear
4:58 AM 48.9 °F 27.0 °F 43% 30.01 in 10.0 mi ESE 9.2 mph - N/A   Clear
5:58 AM 47.1 °F 26.6 °F 45% 30.00 in 10.0 mi ESE 12.7 mph - N/A   Clear
6:58 AM 46.9 °F 27.5 °F 47% 30.02 in 10.0 mi ESE 10.4 mph - N/A   Scattered Clouds
7:58 AM 46.6 °F 27.1 °F 47% 30.03 in 10.0 mi East 10.4 mph - N/A   Scattered Clouds
8:58 AM 48.7 °F 27.9 °F 44% 30.05 in 10.0 mi ESE 10.4 mph - N/A   Scattered Clouds
9:58 AM 54.0 °F 27.1 °F 36% 30.04 in 10.0 mi East 5.8 mph - N/A   Clear
10:58 AM 57.9 °F 27.7 °F 32% 30.03 in 10.0 mi Variable 2.3 mph - N/A   Clear
11:58 AM 60.4 °F 27.3 °F 28% 30.02 in 10.0 mi WSW 5.8 mph - N/A   Clear
12:58 PM 61.3 °F 27.3 °F 27% 30.01 in 10.0 mi WSW 4.6 mph - N/A   Clear
1:58 PM 62.1 °F 25.3 °F 25% 29.98 in 10.0 mi Variable 6.9 mph - N/A   Partly Cloudy
2:58 PM 62.4 °F 23.0 °F 22% 29.97 in 10.0 mi Variable 2.3 mph - N/A   Partly Cloudy
3:58 PM 62.6 °F 15.8 °F 16% 29.95 in 10.0 mi SW 3.5 mph - N/A   Mostly Cloudy
4:58 PM 61.7 °F 13.3 °F 15% 29.95 in 10.0 mi WSW 6.9 mph - N/A   Partly Cloudy
5:58 PM 60.3 °F 17.4 °F 19% 29.94 in 10.0 mi WSW 5.8 mph - N/A   Mostly Cloudy
6:58 PM 59.0 °F 19.6 °F 22% 29.94 in 10.0 mi SW 2.3 mph - N/A   Mostly Cloudy
7:58 PM 57.6 °F 16.5 °F 20% 29.94 in 10.0 mi ENE 2.3 mph - N/A   Clear
8:58 PM 53.8 °F 17.1 °F 24% 29.94 in 10.0 mi ESE 1.2 mph - N/A   Clear
9:58 PM 53.2 °F 16.2 °F 23% 29.94 in 10.0 mi SE 3.5 mph - N/A   Clear
10:58 PM 50.4 °F 29.1 °F 44% 29.93 in 10.0 mi NNW 4.6 mph - N/A   Clear
11:58 PM 48.2 °F 22.3 °F 36% 29.93 in 10.0 mi ESE 8.1 mph - N/A   Clear